CZ-4C R/B

Satellite information

Favourite Embed

Satellite Type and Status

ROCKET BODYIN ORBIT

Key statistics

Satellite CZ-4C R/B at a glance.

Uptime

3925

Days in orbit

Revolutions

≈ 13.7

Per day

Orbit

LEO

Low Earth Orbit

Inclination

63.4

Latest

Satellite identification and parameters

Extended collection of information and parameters for CZ-4C R/B.

Object identification

Identified? True

Debris? False

Object name: CZ-4C R/B

International designator: 2014-080D

Object number (NORAD): 40341

Object ID (CCSDS): 40341

Country: PEOPLES REPUBLIC OF CHINA (PRC)

Current information (Y/N): Y

RCS size: LARGE

Orbital parameters

Period: 105.133 minutes

Inclination: 63.4278 deg

SMA: 7378.796 km

Apoapsis: 1378.25 km

Periapsis: 623.073 km

RAAN: 259.0213 deg

Eccentricy: 0.05117214

Argument of periapsis: 352.7549 deg

Mean anomaly: 6.6284 deg

Mean motion: 13.69696885 rev/day

Mean motion (dot): 0.00000268 rev/day2

B* drag term: 0.00017037692 1/REarth

Two-line elements (TLE)

Creation date: Sept. 8, 2025, 3:16 a.m.

Reference frame: TEME

Reference center: EARTH

Epoch: Sept. 7, 2025, 8:47 a.m. UTC

TLE line 0: 0 CZ-4C R/B

TLE line 1: 1 40341U 14080D 25250.36647505 .00000268 00000-0 17038-3 0 9993

TLE line 2: 2 40341 63.4278 259.0213 0511721 352.7549 6.6284 13.69696885537088

Live tracking on map

Real-time ground track for satellite CZ-4C R/B.

In-orbit conjunctions

A list of the most updated potential collisions computed for object CZ-4C R/B.

Target Orbit TCA Probability of collision Miss distance Type
THOR ABLESTAR DEB LEO 2025-02-02 12:09:52 0.000211954 545.0 (m) DEBRIS
NOAA 16 DEB SSO 2024-09-29 01:01:46 0.0002604059 507.0 (m) DEBRIS

Associated space launch

CZ-4C R/B was lifted into orbit during the mission ‘Long March 4C | Yaogan 25A, Yaogan 25B, Yaogan 25C’, on board a Long March 4C space rocket.

The launch took place on Dec. 10, 2014, 7:33 p.m. from Launch Area 4 (SLS-2 / 603).

For more information about the launch, click the button.

Launch to space Long March 4C | Yaogan 25A, Yaogan 25B, Yaogan 25C
Long March 4C | Yaogan 25A, Yaogan 25B, Yaogan 25C

Agency: N/A

Status: Launch Successful

Launch date: Dec. 10, 2014, 7:33 p.m. UTC

Rocket: Long March 4C

Launch pad: Launch Area 4 (SLS-2 / 603)

Location: Jiuquan Satellite Launch Center, People's Republic of China

...

Latest news about this satellite

There are no fresh news available about this satellite. Check back as we update our databases every day.


Newsletter sign-up

Weekly statistics, charts and insights to help you stay on top of the space industry.